This is the latest recevied weather packets stored in our database for station/object BV3BA-13. If no packets are shown the sender has not sent any weather packets the latest 1 day(s).
| Time | Temp. | Humidity | Pressure | Rain* | Wind** | Luminosity | Snow |
|---|---|---|---|---|---|---|---|
| 1778010427 | 20.56° C | 99% | 1009.2 hPa | 2.03 mm | 0.45 m/s, 150° | - | - |
| 1778009824 | 20.56° C | 99% | 1009.4 hPa | 2.54 mm | 0.45 m/s, 150° | - | - |
| 1778009223 | 20.56° C | 99% | 1009.5 hPa | 2.54 mm | 0 m/s | - | - |
| 1778008624 | 20.56° C | 99% | 1009.3 hPa | 2.54 mm | 0 m/s | - | - |
| 1778008024 | 20.56° C | 99% | 1009.1 hPa | 2.54 mm | 0 m/s | - | - |
| 1778007426 | 20.56° C | 98% | 1009.3 hPa | 2.03 mm | 0 m/s | - | - |
| 1778006823 | 20.56° C | 98% | 1009.6 hPa | 1.02 mm | 0.45 m/s, 330° | - | - |
| 1778006224 | 20.56° C | 98% | 1009 hPa | 1.02 mm | 0.45 m/s, 50° | - | - |
| 1778005623 | 20.56° C | 99% | 1009.2 hPa | 0.51 mm | 0.45 m/s, 10° | - | - |
| 1778005024 | 20.56° C | 98% | 1009.1 hPa | 1.02 mm | 0.45 m/s, 50° | - | - |
| 1778004425 | 20.56° C | 97% | 1009.1 hPa | 1.02 mm | 0.89 m/s, 120° | - | - |
| 1778003823 | 20.56° C | 98% | 1009.3 hPa | 1.02 mm | 1.34 m/s, 120° | - | - |
| 1778003223 | 20.56° C | 98% | 1009.3 hPa | 1.02 mm | 0.89 m/s, 110° | - | - |
| 1778002624 | 20.56° C | 98% | 1009.6 hPa | 0.51 mm | 0 m/s | - | - |
| 1778002023 | 20.56° C | 98% | 1009.6 hPa | 0.51 mm | 0.45 m/s, 110° | - | - |
| 1778001423 | 20.56° C | 98% | 1009.6 hPa | 0 mm | 0.45 m/s, 130° | - | - |
| 1778000823 | 20.56° C | 98% | 1009.8 hPa | 0 mm | 0.45 m/s, 160° | - | - |
| 1778000228 | 20.56° C | 98% | 1010 hPa | 0 mm | 0 m/s | - | - |
| 1777999624 | 20.56° C | 98% | 1010 hPa | 0 mm | 0 m/s | - | - |
| 1777999023 | 20.56° C | 98% | 1010.2 hPa | 0.51 mm | 0 m/s | - | - |
| 1777998424 | 20.56° C | 97% | 1010.3 hPa | 0.51 mm | 0 m/s | - | - |
| 1777997824 | 20.56° C | 97% | 1010.4 hPa | 0.51 mm | 0.45 m/s, 90° | - | - |
| 1777997223 | 20.56° C | 96% | 1010.4 hPa | 0.51 mm | 0.45 m/s, 60° | - | - |
| 1777996623 | 20.56° C | 97% | 1010.5 hPa | 0.51 mm | 0.89 m/s, 110° | - | - |
| 1777996023 | 20.56° C | 97% | 1010.8 hPa | 0.51 mm | 0.89 m/s, 110° | - | - |
* Rain latest hour (hover to see other rain measurements)
** Current wind speed in m/s (hover to see current wind gust speed)